Location: UBC Liquid-Mirror Observatory
(49.2876°N, 122.5728°W)
Time: 01:06:39
(UTC-07:00)

Daily predictions for brighter satellites

Satellite Brightness Start Highest point End
(mag) Time Altitude Azimuth Time Altitude Azimuth Time Altitude Azimuth
Aureole 2 Rocket 4.3 00:01:19 10° N 00:03:37 20° ENE 00:05:16 14° E
Cosmos 1125 Rocket 4.0 00:03:09 25° SSE 00:05:47 45° ESE 00:10:50 10° NE
Cosmos 1346 4.2 00:08:30 22° SW 00:10:03 39° WNW 00:12:57 10° N
Cosmos 1626 2.9 00:09:06 20° SW 00:11:28 48° WNW 00:15:08 10° N
Terra 3.7 00:09:09 11° SW 00:12:41 22° W 00:16:24 10° NW
Cosmos 1900 4.3 00:12:42 10° NW 00:17:44 80° SW 00:20:21 28° SSE
BREEZE-M DEB (TANK) 3.3 00:19:50 24° ESE 00:19:50 24° ESE 00:22:22 10° E
CZ-4C R/B 2.9 00:18:22 39° SSE 00:19:34 80° ENE 00:23:09 10° N
SeaSat 1 2.9 00:18:03 26° S 00:20:32 49° WSW 00:25:21 10° NW
Cosmos 1869 Rocket 3.6 00:18:55 31° S 00:21:00 68° E 00:25:28 10° NNE
USA 234 3.9 00:14:47 10° E 00:21:08 56° NNE 00:27:30 10° WNW
ALOS 2 2.6 00:21:24 30° SSE 00:23:31 74° ENE 00:27:55 10° N
Lacrosse 4 Rocket 1.5 00:20:41 10° NW 00:25:06 87° WSW 00:27:15 31° SSE
Cosmos 2227 Rocket 2.2 00:21:18 16° SSW 00:25:56 83° WNW 00:31:40 10° NNE
Cosmos 2333 Rocket 3.3 00:23:02 10° NW 00:28:07 33° WSW 00:31:11 20° SSW
Cosmos 1455 4.2 00:27:10 10° NW 00:29:58 20° W 00:32:01 13° SW
Cosmos 1241 Rocket 4.4 00:25:58 13° SW 00:31:36 88° ESE 00:37:56 10° NE
SL-16 R/B 2.3 00:28:41 10° NNW 00:34:21 69° WSW 00:37:24 28° S
ERBS 2.7 00:37:13 44° SSE 00:37:23 44° SE 00:40:43 10° ENE
Landsat 5 3.6 00:36:55 32° SSE 00:39:00 80° ENE 00:43:34 10° NNW
COS B Rocket 4.0 00:37:32 10° NNW 00:40:54 41° W 00:42:36 26° SW
ASTEX 1 3.5 00:36:52 10° NNE 00:41:45 63° E 00:44:02 30° SSE
H-2A R/B 2.5 00:37:57 10° NNE 00:42:05 70° ESE 00:43:49 34° S
Cosmos 372 Rocket 4.2 00:42:07 30° S 00:44:33 56° ESE 00:49:41 10° NNE
Cosmos 158 Rocket 4.0 00:39:26 10° NNW 00:44:49 83° ENE 00:47:41 28° SSE
Cosmos 2221 Rocket 4.5 00:41:51 10° NNW 00:46:09 42° W 00:48:19 25° SSW
Meteor 1-26 Rocket 4.4 00:43:36 10° NNW 00:49:07 62° W 00:52:09 27° SSW
Nadezhda 3 Rocket 4.5 00:43:55 10° N 00:49:58 52° ENE 00:54:00 21° SE
NOSS 3-1 (A) 4.3 00:46:38 10° WSW 00:52:37 53° NW 00:59:22 10° NE
Cosmos 2297 Rocket 2.4 00:49:17 18° SW 00:53:34 73° WNW 00:59:15 10° NNE
Okean 1-7 3.5 00:50:10 10° NNW 00:54:19 48° W 00:56:02 30° SSW
Cosmos 2074 Rocket 4.0 00:51:28 27° S 00:55:11 84° E 01:01:32 10° N
CZ-2C R/B 4.1 00:52:39 17° SE 00:56:47 45° ENE 01:02:07 10° N
Cosmos 2219 Rocket 4.3 00:56:06 10° WNW 00:59:01 14° W 01:01:50 10° SW
Cosmos 1943 4.3 00:54:29 10° NNW 00:59:54 42° NE 01:05:15 10° ESE
Cosmos 1606 4.2 00:57:54 10° N 01:01:19 30° ENE 01:03:12 20° ESE
CZ-4C R/B 3.2 00:54:44 10° NW 01:01:29 62° NE 01:09:02 10° ESE
CZ-2C R/B 3.2 00:57:43 10° NNE 01:02:45 44° E 01:05:10 27° SSE
Cosmos 389 Rocket 3.4 00:59:29 10° NNW 01:02:50 37° W 01:03:46 31° SW
Cosmos 2251 Rocket 3.5 00:58:30 10° NNW 01:03:54 90° E 01:06:46 28° SSE
COSMOS 2455 3.5 01:00:06 10° NW 01:05:41 40° WSW 01:08:21 26° SSW
Meteor 2-10 Rocket 3.7 01:01:30 10° NNW 01:07:02 89° W 01:10:06 29° S
Cosmos 1603 3.7 01:02:08 10° NNW 01:07:51 89° WSW 01:11:15 26° SSE
Cosmos 1674 Rocket 3.7 01:04:36 10° N 01:09:01 70° ENE 01:11:00 32° SSE
Helios 1A Rocket 2.9 01:08:50 10° NNE 01:13:02 81° ESE 01:14:39 37° S
Geosat 4.0 01:09:51 10° NNE 01:14:54 71° ESE 01:17:26 30° SSW
ATLAS 2AS CENTAUR R/B 3.2 01:07:27 10° SW 01:15:09 79° NW 01:23:22 10° NE
Cosmos 1975 Rocket 4.5 01:13:37 10° N 01:17:34 31° ENE 01:20:21 16° SE
Cosmos 2154 Rocket 4.1 01:17:20 27° S 01:20:57 68° E 01:27:12 10° NNE
Meteor 1-10 Rocket 4.3 01:15:24 10° NNW 01:21:22 85° WSW 01:24:42 28° S
Cosmos 1892 2.6 01:21:53 42° SSW 01:23:07 87° W 01:26:57 10° N
BREEZE-M DEB (TANK) 4.3 01:19:50 17° SW 01:23:24 69° SSE 01:39:14 10° ENE
Meteor 2-3 Rocket 4.0 01:22:14 25° SSW 01:25:40 65° WNW 01:31:23 10° N
CZ-4B R/B 3.0 01:25:15 23° WSW 01:25:59 25° W 01:28:54 10° NW
Cosmos 2237 Rocket 4.3 01:23:35 10° WNW 01:26:15 14° W 01:28:42 10° WSW
Cosmos 1607 3.8 01:21:42 10° NW 01:27:54 86° SW 01:32:34 18° SE
Cosmos 1908 Rocket 4.2 01:26:34 28° SE 01:28:20 44° E 01:32:29 10° NNE
Cosmos 921 Rocket 3.7 01:28:04 30° SE 01:29:27 40° ESE 01:33:24 10° NE
MOS 1-B Rocket 3.9 01:28:47 28° S 01:31:52 65° WSW 01:37:28 10° NNW
Cosmos 1689 Rocket 4.1 01:32:20 20° WSW 01:32:51 20° W 01:35:24 10° NW
Cosmos 2184 Rocket 4.4 01:29:26 22° SSW 01:33:24 56° WNW 01:39:30 10° N
Cosmos 44 4.3 01:31:45 27° SSE 01:33:49 37° ESE 01:38:49 10° NE
Cosmos 1782 2.8 01:29:58 10° NNW 01:33:56 72° W 01:35:18 39° S
ATLAS 3B R/B 3.6 01:27:59 10° NW 01:33:57 31° WSW 01:36:40 23° SSW
USA 238 DEB 3.9 01:29:48 10° NW 01:36:40 58° WSW 01:41:01 24° SSE
Cosmos 807 4.3 01:33:46 10° NNW 01:36:44 64° W 01:37:19 50° SSW
USA 238 3.9 01:29:54 10° NW 01:36:47 58° WSW 01:41:09 23° SSE
Cosmos 2084 Rocket 3.7 01:38:10 36° SSE 01:38:54 40° SE 01:42:30 10° NE
Aureole 2 Rocket 3.5 01:36:43 10° NW 01:39:22 27° WSW 01:39:23 27° WSW
FALCON 9 R/B 4.4 01:34:42 10° WSW 01:39:08 15° SW 01:39:08 15° SW
PSLV R/B 3.9 01:38:14 32° SSE 01:40:03 79° ENE 01:44:08 10° NNW
Sich 1 Rocket 3.6 01:42:45 33° S 01:44:43 85° E 01:49:16 10° N
Cosmos 1340 Rocket 3.1 01:43:42 32° SW 01:45:14 56° WNW 01:49:08 10° N
Cosmos 494 Rocket 4.2 01:42:11 10° NNW 01:47:21 59° WSW 01:49:54 29° S
NOSS 2-3 (E) 4.1 01:46:05 22° SW 01:49:31 81° NW 01:55:37 10° NE
Cosmos 2341 Rocket 4.0 01:45:54 26° S 01:49:45 86° E 01:56:10 10° N
Uosat 12 SS-18 rocket 4.2 01:48:52 30° SSW 01:51:10 70° SE 01:55:34 10° NE
Cosmos 1825 2.7 01:52:05 31° SSE 01:53:31 49° E 01:57:13 10° NNE
Coronas F rocket 2.2 01:55:41 36° W 01:56:00 37° WNW 01:58:35 10° N
Cosmos 44 Rocket 3.5 01:56:37 22° SW 02:00:02 77° NW 02:05:19 10° NE
Cosmos 1408 3.0 01:58:48 33° SSE 02:00:15 58° E 02:03:58 10° NNE
Cosmos 1733 Rocket 3.9 02:00:15 24° SW 02:02:28 41° WNW 02:06:44 10° N
Lacrosse 4 Rocket 3.7 02:01:24 10° W 02:03:10 12° WSW 02:03:35 12° WSW
USA 234 3.2 01:57:29 10° SE 02:04:02 75° SW 02:10:37 10° WNW
Cosmos 962 Rocket 4.5 02:01:41 25° SSW 02:05:23 76° W 02:11:32 10° N
NOSS 3-2 (C) 3.9 02:03:05 10° NW 02:10:28 85° SW 02:18:28 10° SE
Cosmos 2227 Rocket 4.4 02:06:42 10° W 02:10:54 21° NW 02:15:07 10° N
CENTAUR R/B 4.0 02:04:38 10° NW 02:11:51 48° NE 02:19:40 10° ESE
Cosmos 1378 Rocket 3.8 02:07:56 10° NNW 02:12:14 54° W 02:14:07 30° SSW
SL-8 Rocket 4.1 02:09:34 24° S 02:13:39 80° E 02:20:00 10° NNE
ERBS 3.8 02:11:01 10° W 02:14:18 38° NNW 02:17:34 10° NE
Okean 3 3.6 02:10:38 10° NNW 02:14:54 66° W 02:16:55 30° S
Cosmos 1356 Rocket 4.3 02:15:26 23° WSW 02:17:20 37° WNW 02:21:09 10° N
SL-16 R/B 4.3 02:15:40 10° WNW 02:17:23 11° W 02:19:06 10° WSW
Cosmos 2218 Rocket 4.1 02:13:33 22° S 02:17:43 72° E 02:24:02 10° NNE
Cosmos 2263 Rocket 2.8 02:15:21 22° S 02:18:38 46° ESE 02:24:03 10° NE
Meteor 1-27 Rocket 4.2 02:13:14 10° NNW 02:18:55 51° W 02:22:11 24° SSW
Cosmos 1862 3.4 02:17:33 32° SSW 02:19:19 70° W 02:23:21 10° N
COSMOS 2406 4.3 02:13:47 10° NNW 02:19:21 46° NE 02:24:53 10° SE
SL-08 R/B 4.2 02:20:44 10° SE 02:25:29 49° ENE 02:30:14 10° N
Okean 2 Rocket 3.1 02:24:54 27° S 02:27:20 90° WSW 02:31:53 10° N
Cosmos 1238 Rocket 4.1 02:26:02 10° NNW 02:29:50 29° W 02:31:15 22° WSW
NOSS 3-2 (A) 4.1 02:28:04 10° NW 02:35:17 58° WSW 02:43:04 10° SSE
Cosmos 2366 rocket 4.0 02:31:13 21° S 02:35:28 84° E 02:41:42 10° N
NOSS 3-4 (A) 3.8 02:32:22 22° SSW 02:36:31 59° SE 02:43:00 10° NE
Cosmos 1782 Rocket 3.7 02:34:18 26° SSW 02:36:36 62° WNW 02:40:59 10° N
NOSS 3-4 (C) 3.8 02:32:28 22° SSW 02:36:37 58° ESE 02:43:06 10° NE
CZ-2C R/B 4.2 02:33:43 21° SW 02:36:44 34° W 02:41:51 10° NNW
Cosmos 1606 4.2 02:33:54 10° NW 02:37:02 24° W 02:38:18 20° WSW
Cosmos 2297 Rocket 4.5 02:34:43 10° W 02:38:39 19° NW 02:42:37 10° N
Cosmos 407 Rocket 4.2 02:33:47 10° NNW 02:38:51 54° ENE 02:43:55 10° SE
ATLAS 5 CENTAUR R/B 4.3 02:34:06 10° NW 02:39:07 31° NNE 02:44:29 10° E
SL-27 R/B 4.1 02:39:06 10° N 02:42:28 34° ENE 02:45:50 10° SE
CZ-2C R/B 3.9 02:38:19 10° N 02:42:54 31° WNW 02:46:41 14° WSW
Cosmos 1943 3.8 02:38:41 10° NW 02:43:57 39° WSW 02:47:08 21° SSW
IRS-P3 4.5 02:40:21 10° NNE 02:45:40 60° ESE 02:49:36 18° S
Landsat 4 3.7 02:43:58 25° S 02:46:03 69° WSW 02:49:51 10° NNW
CZ-4C R/B 3.3 02:43:29 10° NW 02:50:02 42° WSW 02:56:17 14° S
USA 161 3.9 02:48:12 10° ESE 02:50:29 22° ENE 02:52:51 10° NNE
Meteor 2-8 Rocket 4.4 02:44:32 10° NNW 02:50:37 76° W 02:55:30 16° S
Cosmos 1727 Rocket 4.0 02:45:08 10° NNW 02:51:22 68° W 02:56:07 18° S
Cosmos 1242 Rocket 2.4 02:49:56 10° NNW 02:53:26 71° W 02:55:22 24° S
PSLV R/B 3.5 02:49:20 10° N 02:53:35 73° WNW 02:56:09 23° SSW
Meteor 1-18 Rocket 4.3 02:48:18 10° N 02:53:57 84° ENE 02:59:24 11° SSE
Cosmos 1975 Rocket 4.2 02:51:33 10° NNW 02:55:24 30° W 02:57:30 20° SW
CRYOSAT 2 4.4 02:52:47 10° N 02:57:38 71° W 03:00:57 20° SSW
Cosmos 1867 3.8 02:54:14 10° NW 02:59:30 48° WSW 03:04:27 11° SSE
Resurs 1-4 Rocket 4.2 02:57:01 10° NE 03:01:01 21° E 03:04:58 10° SE
Cosmos 1536 Rocket 3.6 03:03:05 10° NNW 03:07:25 65° W 03:10:38 18° S
ATLAS 2AS CENTAUR R/B 4.5 03:00:13 10° W 03:07:25 36° NNW 03:14:51 10° NE
Cosmos 1954 Rocket 4.5 03:07:54 10° NNW 03:13:03 62° ENE 03:18:10 10° SE
Cosmos 44 4.2 03:10:10 12° WSW 03:15:02 50° NW 03:20:22 10° NNE
Cosmos 1624 Rocket 4.0 03:13:21 18° SSW 03:17:19 86° ESE 03:22:37 10° NNE
Cosmos 909 Rocket 4.4 03:12:57 17° SSW 03:18:08 69° ESE 03:25:43 10° NE
IRAS Rocket 4.2 03:13:57 10° NNE 03:19:30 86° WNW 03:24:07 15° SSW
Okean 1 3.3 03:16:15 10° N 03:20:16 90° WSW 03:24:05 11° S
Cosmos 1812 2.7 03:17:40 10° NNW 03:21:35 76° W 03:24:58 13° S
Cosmos 1184 Rocket 3.8 03:20:07 19° SW 03:22:04 35° WNW 03:25:14 10° N
Abrixas rocket 3.6 03:21:09 19° S 03:22:32 25° SSE 03:25:20 10° E
Okean 1-7 Rocket 3.7 03:20:35 10° N 03:25:11 83° E 03:29:46 10° S
NPP 3.7 03:19:52 10° NNE 03:25:17 79° WNW 03:29:51 15° SSW
Cosmos 2151 Rocket 4.0 03:22:35 17° SSW 03:25:45 52° WNW 03:30:09 10° N
ERS-2 2.1 03:22:36 10° NNE 03:26:20 84° WNW 03:29:10 17° SSW
ADEOS 3.8 03:22:53 10° NNE 03:28:07 69° ESE 03:33:04 11° S
Iridium 4 Rocket 3.9 03:24:16 10° NNW 03:28:30 40° W 03:32:06 15° SSW
Cosmos 1825 4.3 03:27:06 10° WSW 03:29:29 16° WNW 03:31:52 10° NNW
RESURS DK-1 2.4 03:26:24 17° SW 03:29:33 78° WNW 03:33:44 10° NNE
COSMOS 2487 4.2 03:27:21 10° N 03:30:44 35° ENE 03:34:06 10° SE
Cosmos 1934 Rocket 4.4 03:24:57 10° S 03:31:04 60° E 03:37:08 10° NNE
Meteor 1-20 Rocket 4.3 03:26:05 13° S 03:31:23 88° ESE 03:37:14 10° NNE
ARIANE 5 R/B 3.3 03:28:38 10° NNE 03:33:28 47° E 03:38:17 10° S
Okean O Rocket 4.1 03:35:36 10° NE 03:38:19 16° E 03:41:02 10° SE
Cosmos 1452 Rocket 4.0 03:33:40 11° S 03:38:40 56° ESE 03:43:50 10° NNE
SL-16 R/B 2.7 03:33:30 10° SSE 03:39:45 79° ENE 03:45:59 10° NNW
CBERS-1 4.2 03:36:20 10° N 03:41:27 67° WNW 03:46:06 12° SSW
Okean 1 Rocket 3.1 03:37:38 12° S 03:41:46 89° E 03:46:16 10° N
Cosmos 489 Rocket 4.5 03:36:11 10° NNW 03:42:28 77° WSW 03:48:40 10° SSE
SME Rocket 3.4 03:41:39 10° SSE 03:45:19 64° ENE 03:49:37 10° NNW
USA 234 4.2 03:42:36 10° S 03:47:47 25° SW 03:52:59 10° WNW
GP-B 3.4 03:43:36 10° N 03:47:56 52° W 03:52:01 11° SSW
CZ-2D R/B 2.9 03:44:56 10° NNE 03:50:14 51° E 03:55:32 10° S
Cosmos 1023 Rocket 4.5 03:49:16 10° NNW 03:54:25 88° ENE 03:59:30 10° SSE
Cosmos 2123 Rocket 4.1 03:53:26 10° NNW 03:59:48 80° W 04:06:07 10° S
Cosmos 1844 Rocket 3.0 03:55:08 10° SSW 04:00:44 66° ESE 04:06:23 10° NNE
BREEZE-M DEB (TANK) 2.7 03:52:57 10° W 04:00:59 87° N 04:03:47 10° E
Cosmos 1605 Rocket 4.3 03:55:08 10° S 04:01:16 72° E 04:07:30 10° NNE
Cosmos 1844 4.4 03:56:58 10° S 04:02:27 52° ESE 04:08:02 10° NE
Cosmos 1821 Rocket 4.1 03:56:20 10° SSW 04:02:42 73° W 04:09:07 10° N
Cosmos 2263 Rocket 3.2 03:57:28 10° WSW 04:02:43 37° NW 04:07:59 10° NNE
CENTAUR R/B 3.1 03:55:24 10° NW 04:03:02 66° SW 04:11:11 10° SSE
COSMOS 2406 3.9 03:58:21 10° NW 04:03:35 36° WSW 04:08:47 10° S
Meteor 2-15 Rocket 4.5 04:01:08 10° NNW 04:07:20 84° W 04:13:29 10° S
Cosmos 1602 3.7 04:06:39 10° S 04:10:30 84° W 04:14:22 10° N
Cosmos 1025 Rocket 3.0 04:08:45 10° NNW 04:13:01 66° W 04:17:17 10° S
Cosmos 1140 Rocket 3.5 04:08:51 10° NNW 04:13:58 65° WSW 04:19:02 10° S
Spot 4 Rocket 4.3 04:09:32 10° N 04:14:36 58° WNW 04:19:39 10° SSW
Cosmos 2056 Rocket 4.4 04:09:44 10° SW 04:14:42 39° WNW 04:19:37 10° NNE
UNK 3.8 04:11:04 10° S 04:15:38 60° W 04:20:16 10° NNW
Cosmos 2278 Rocket 3.1 04:12:08 10° S 04:17:32 47° ESE 04:22:58 10° NE
SL-27 R/B 4.0 04:14:47 10° NW 04:17:34 21° W 04:20:22 10° SSW
Cosmos 1850 Rocket 4.0 04:12:23 10° NNW 04:17:38 78° WSW 04:22:52 10° SSE
Cosmos 1741 Rocket 4.0 04:12:55 10° NNW 04:18:15 80° WSW 04:23:30 10° SSE
USA 161 3.2 04:18:48 10° SW 04:20:53 19° W 04:23:02 10° NW
Cosmos 1536 2.9 04:16:51 10° S 04:20:56 89° W 04:25:02 10° N
ATLAS 5 CENTAUR R/B 2.4 04:18:39 10° NW 04:24:32 90° NE 04:30:53 10° SE
NOSS 3-4 (A) 4.5 04:21:34 10° WSW 04:27:42 44° NNW 04:34:08 10° NE
NOSS 3-4 (C) 4.5 04:21:38 10° WSW 04:27:48 44° NNW 04:34:13 10° NE
